Location: lozzo di cadore
(46.4899°N, 12.4508°E)
Time: 14:04:42
(UTC+02:00)

Envisat - Pass Details

Date: 09 May 2025
Orbit: 761 x 763 km, 98.3° (Epoch: 14 May)

Event Time Altitude Azimuth Distance (km) Brightness Sun altitude
Rises 03:25:59 0° 21° (NNE) 3,233 7.7 -18.8°
Reaches altitude 10° 03:28:29 10° 30° (NNE) 2,303 6.7 -18.6°
Maximum altitude 03:33:07 35° 96° (E) 1,215 4.3 -18.1°
Enters shadow 03:37:30 11° 161° (SSE) 2,208 5.1 -17.6°
